AUA210 EDDF-LOWW

Flight info

Callsign AUA210
Flight time N/A
Altitude 35000
Route SULUS4D/07C SULUS Z650 VEMUT DCT ETVIS DCT BUDWA DCT BUDEX BUDEX2W
Aircraft A321/M-SDE3FGHIRWY/LB1

Departure

Time N/A
Airport Frankfurt Main Airport (EDDF)

Arrival

Time 2026-04-20 13:19
Airport Vienna International Airport (LOWW)
Time Latitude Longitude Altitude Speed Heading
2026-04-20 13:05 48.39669 15.98988 11498 ft 373 kts 121°
2026-04-20 13:06 48.38359 16.02343 11319 ft 372 kts 122°
2026-04-20 13:06 48.37047 16.05694 11136 ft 371 kts 122°
2026-04-20 13:06 48.35738 16.09034 10956 ft 370 kts 122°
2026-04-20 13:06 48.34431 16.12355 10784 ft 369 kts 122°
2026-04-20 13:07 48.33124 16.15676 10608 ft 369 kts 122°
2026-04-20 13:07 48.31812 16.19006 10436 ft 367 kts 122°
2026-04-20 13:07 48.30519 16.22283 10271 ft 366 kts 122°
2026-04-20 13:07 48.29224 16.25567 10097 ft 365 kts 122°
2026-04-20 13:08 48.27931 16.28836 9923 ft 363 kts 122°
2026-04-20 13:08 48.26642 16.32089 9741 ft 362 kts 122°
2026-04-20 13:08 48.25356 16.35329 9551 ft 361 kts 122°
2026-04-20 13:08 48.24072 16.38560 9367 ft 360 kts 122°
2026-04-20 13:09 48.22789 16.41781 9180 ft 359 kts 122°
2026-04-20 13:09 48.21525 16.44948 9003 ft 358 kts 122°
2026-04-20 13:09 48.20247 16.48150 8815 ft 358 kts 122°
2026-04-20 13:09 48.18968 16.51354 8635 ft 358 kts 122°
2026-04-20 13:10 48.17693 16.54554 8446 ft 357 kts 122°
2026-04-20 13:10 48.16418 16.57745 8268 ft 357 kts 122°
2026-04-20 13:10 48.15143 16.60928 8044 ft 356 kts 122°
2026-04-20 13:10 48.13872 16.64094 7616 ft 353 kts 122°
2026-04-20 13:11 48.12501 16.67122 7173 ft 350 kts 131°
2026-04-20 13:11 48.10788 16.69666 6757 ft 346 kts 143°
2026-04-20 13:11 48.08799 16.71631 6329 ft 340 kts 155°
2026-04-20 13:11 48.06655 16.72946 5875 ft 327 kts 166°
2026-04-20 13:12 48.04495 16.73840 5495 ft 317 kts 167°
2026-04-20 13:12 48.02450 16.74693 5155 ft 292 kts 167°
2026-04-20 13:12 48.00569 16.75481 4829 ft 271 kts 167°
2026-04-20 13:12 47.98806 16.76216 4517 ft 258 kts 167°
2026-04-20 13:13 47.97101 16.76922 4188 ft 251 kts 167°
2026-04-20 13:13 47.95429 16.77610 3856 ft 248 kts 167°
2026-04-20 13:13 47.93761 16.78182 3518 ft 244 kts 179°
2026-04-20 13:13 47.92156 16.77708 3181 ft 232 kts 212°
2026-04-20 13:14 47.91057 16.76119 2998 ft 221 kts 247°
2026-04-20 13:14 47.90768 16.73928 3000 ft 218 kts 279°
2026-04-20 13:14 47.91290 16.71842 3005 ft 216 kts 302°
2026-04-20 13:14 47.92125 16.69983 3003 ft 216 kts 305°
2026-04-20 13:15 47.92995 16.68151 2996 ft 217 kts 305°
2026-04-20 13:15 47.93865 16.66376 2988 ft 203 kts 311°
2026-04-20 13:15 47.94930 16.65125 2992 ft 188 kts 330°
2026-04-20 13:15 47.96126 16.64500 3000 ft 179 kts 341°
2026-04-20 13:16 47.97304 16.64005 2951 ft 174 kts 341°
2026-04-20 13:16 47.98460 16.63519 2764 ft 171 kts 341°
2026-04-20 13:16 47.99573 16.63052 2552 ft 160 kts 340°
2026-04-20 13:16 48.00613 16.62615 2347 ft 152 kts 341°
2026-04-20 13:17 48.01626 16.62187 2148 ft 151 kts 342°
2026-04-20 13:17 48.02630 16.61764 1943 ft 148 kts 342°
2026-04-20 13:17 48.03619 16.61347 1749 ft 148 kts 341°
2026-04-20 13:17 48.04617 16.60927 1534 ft 143 kts 340°
2026-04-20 13:18 48.05551 16.60533 1343 ft 138 kts 341°
2026-04-20 13:18 48.06457 16.60151 1131 ft 134 kts 344°
2026-04-20 13:18 48.07341 16.59778 999 ft 132 kts 343°
2026-04-20 13:18 48.08217 16.59405 803 ft 132 kts 344°
2026-04-20 13:19 48.09086 16.59037 623 ft 128 kts 345°
2026-04-20 13:19 48.09833 16.58724 625 ft 85 kts 344°
2026-04-20 13:19 48.10295 16.58530 621 ft 62 kts 345°
2026-04-20 13:19 48.10656 16.58352 614 ft 44 kts 332°
2026-04-20 13:20 48.10821 16.58141 624 ft 24 kts 315°
2026-04-20 13:20 48.10945 16.57978 613 ft 24 kts 335°
2026-04-20 13:20 48.11087 16.57914 625 ft 20 kts 345°
2026-04-20 13:20 48.11221 16.57859 619 ft 20 kts 344°
2026-04-20 13:21 48.11357 16.57801 625 ft 21 kts 344°
2026-04-20 13:21 48.11497 16.57740 617 ft 21 kts 343°
2026-04-20 13:21 48.11639 16.57681 611 ft 22 kts 345°
2026-04-20 13:21 48.11779 16.57621 618 ft 17 kts 336°
2026-04-20 13:22 48.11801 16.57475 611 ft 15 kts 268°
2026-04-20 13:22 48.11819 16.57324 625 ft 15 kts 292°
2026-04-20 13:22 48.11852 16.57182 615 ft 14 kts 277°
2026-04-20 13:22 48.11879 16.57041 616 ft 14 kts 296°
2026-04-20 13:23 48.11929 16.56914 615 ft 14 kts 297°
2026-04-20 13:23 48.11954 16.56832 620 ft 7 kts 277°
2026-04-20 13:23 48.11963 16.56791 620 ft 6 kts 292°
2026-04-20 13:23 48.11954 16.56743 615 ft 4 kts 223°
2026-04-20 13:24 48.11927 16.56722 620 ft 3 kts 207°
2026-04-20 13:24 48.11918 16.56716 627 ft 0 kts 207°